DELTA 1 DEB, 7052

Orbit data source: Space-Track

DELTA 1 DEB, 7052 is space debris in SSO originally from a launch on Tue, 06 Nov 1973 UTC launched from the Air Force Western Test Range (AFWTR). Debris objects in space refer to the collection of defunct objects orbiting the Earth. Examples of debris include non-operational satellites, rocket bodies, and fragments generated from explosions, collisions, or faulty payload assembly.

Loading next visibility...
Identifier
7052, 1973-086AU
Orbit
SSO
Country
Flag of USUS
Related business
Manufacturer
Unknown
Mission
Spacecraft
Bus & Motor
Unknown
Mass
Unknown
Launch date (UTC)
1973-11-06 (52 years ago)
Launch vehicle
Unknown
Launch site
Air Force Western Test Range (AFWTR)
Object type
Payload
Rocket body
Debris
Shape & HBR
Unknown shape, 0.2 m
Radar Cross Section
Small (<0.1 m²)

Expand to show TLE details & history
Last TLE update: 1 day ago

TLE from 1 day ago
0 DELTA 1 DEB
1  7052U 73086AU  26121.99470543  .00000002  00000-0  37542-3 0  9997
2  7052 102.3919 132.1221 0023015 350.9115  37.1922 12.37511391369227
Epoch: 2026-05-01T23:52Z
TLE epoch observation values (Epoch: 2026-05-01T23:52:22.549Z)
Latitude
27.58813°
Longitude
-92.45094°
Altitude
1,505.757 km
Speed
7.121 km/s
True Right ascension
08h 22m 14s
True Declination
27° 27' 38"
Sunlit
Object was in daylight at epoch
Visualization orbit readout
Latitude
Unknown
Longitude
Unknown
Altitude
Unknown
Speed
Unknown
Apparent Right ascension
Unknown
Apparent Declination
Unknown
Sunlit
N/A
Visualization observer readout
Local Sidereal Time
08:19:11
Azimuth
Unknown
Elevation
Unknown
Doppler factor
Unknown
Orbital elements
Apogee altitude
1,532.937 km
Perigee altitude
1,496.606 km
Semi-major axis
7,892.909 km
Eccentricity
0.0023
Inclination
102.3919°
RAAN
132.1221°
Arg. of periapsis
350.9115°
True anomaly
37.35199°
Mean anomaly
37.1922°
Eccentric anomaly
37.27206°
Mean motion
3.09519 °/min
Orbital period
116.31 mins
BSTAR
0.00037542
Loading maneuver chart data...
Computing Atmospheric mass density...
Loading historical data...
Loading historical data...
Loading historical data...
Loading historical data...
Loading historical data...
Loading historical data...
Loading historical data...

Documentation

Showing up to 5 results
|